[[{"header":{"parameterUnit":"m.s-1","parameterCategory":1,"la1":30.2991,"la2":30.254,"lo1":-89.0895,"lo2":-89.0444,"dy":0.0017,"dx":0.0017,"nx":28,"ny":28,"refTime":"2023-06-21T21:00:00:Z","depth":0,"parameterNumber":2,"parameterNumberName":"U-component_of_WINDS"},"data":[0,0,0,0,0,0,0,0,0,0,0,0,0,0,0,0,0,0,0,0,0,0,0,0,0,0,0,0,0,0,0,0,0,0,0,0,0,0,0,0,0,0,0,0,0,0,0,0,0,0,0,0,0,0,0,0,0,0,3.2962,3.2964,0,3.3141,3.3143,3.3145,3.318,3.3179,3.3177,3.3176,3.3359,3.3365,3.3371,0,0,0,0,0,0,0,0,0,0,0,0,0,3.2648,3.2653,3.2962,3.2964,3.2966,3.3141,3.3143,3.3146,3.318,3.3179,3.3177,3.3175,3.3357,3.3364,3.3371,0,0,0,0,0,0,0,0,0,0,0,0,0,3.2801,3.2655,3.2962,3.3005,3.301,3.314,3.3143,3.3146,3.3181,3.3178,3.3176,3.3174,3.3354,3.3363,3.3372,3.3472,0,0,3.3401,3.3405,0,0,0,0,0,0,0,0,3.2792,3.2813,3.2996,3.3002,3.3009,3.3136,3.31,3.3255,3.3181,3.3116,3.3176,3.3173,3.3286,3.3301,3.3339,3.348,3.3488,3.3401,3.3407,3.3411,3.3414,0,0,0,0,0,0,0,3.2782,3.2805,3.3033,3.2999,3.3006,3.3014,3.3034,3.3129,3.3211,3.3121,3.3124,3.3145,3.3289,3.333,3.3344,3.3491,3.3401,3.3409,3.3415,3.3419,3.372,3.3722,0,0,0,0,0,0,3.2764,3.2796,3.3027,3.3038,3.2893,3.3022,3.3044,3.3097,3.321,3.3225,3.3147,3.3146,3.3315,3.3333,3.335,3.3472,3.3411,3.342,3.3425,3.3717,3.372,3.3723,0,0,0,0,0,0,3.2757,3.2784,3.302,3.2918,3.2949,3.3029,3.3089,3.3102,3.3143,3.3229,3.3243,3.3174,3.3314,3.3337,3.3441,3.3479,3.3424,3.3432,3.3714,3.3718,3.3722,3.3717,0,0,0,0,0,0,3.2747,3.2781,3.282,3.2919,3.2954,3.3108,3.3092,3.3107,3.3159,3.316,3.3258,3.3272,3.3314,3.3427,3.345,3.3491,3.3439,3.3711,3.3716,3.372,3.3714,3.372,3.3725,0,0,0,0,0,3.2736,3.2813,3.2822,3.285,3.3005,3.311,3.313,3.3177,3.3162,3.3201,3.3256,3.3269,3.3471,3.3437,3.3463,3.3507,3.3709,3.3715,3.372,3.3712,3.3719,3.3725,0,0,0,0,0,0,3.2717,3.2826,3.2838,3.2949,3.302,3.3116,3.3167,3.3184,3.3261,3.3258,3.3313,3.3335,3.3435,3.3482,3.3442,3.3608,3.3589,3.36,3.3574,3.3581,3.3587,3.3573,3.3447,0,0,0,0,0,3.2726,3.2803,3.2894,3.2982,3.3018,3.3086,3.3134,3.3164,3.324,3.327,3.3332,3.3405,3.3485,3.3536,3.3614,3.3722,3.3742,3.3765,3.377,3.3775,3.3783,3.3841,3.3851,3.3741,3.3741,3.3741,0,0,3.2744,3.2813,3.2859,3.298,3.3039,3.3116,3.3111,3.3194,3.3251,3.3282,3.3383,3.3432,3.3516,3.3621,3.3671,3.3663,3.3818,3.3782,3.3784,3.3791,3.3847,3.3858,3.3867,3.3745,3.3744,3.3743,0,0,3.2817,3.2878,3.2957,3.3016,3.3105,3.3149,3.3168,3.3262,3.3295,3.3397,3.3421,3.349,3.3627,3.3685,3.3733,3.3826,3.384,3.385,3.3878,3.3934,3.3943,3.395,3.3981,3.3992,3.3858,3.3858,3.3858,0,3.2829,3.2947,3.2996,3.3077,3.3129,3.316,3.324,3.3294,3.3404,3.3438,3.3429,3.3599,3.3659,3.3777,3.3799,3.3838,3.3859,3.3838,3.3937,3.3946,3.3954,3.3984,3.3996,3.3859,3.3859,3.3859,3.3859,0,3.2956,3.3037,3.309,3.3194,3.3252,3.3332,3.3393,3.3445,3.347,3.3515,3.3618,3.369,3.3782,3.3813,3.3838,3.3934,3.3926,3.3927,3.3908,3.3964,3.3993,3.4005,3.386,3.3859,3.3859,3.3859,0,0,3.3022,3.3151,3.3169,3.3216,3.3315,3.3378,3.3459,3.3549,3.3592,3.3666,3.3734,3.3848,3.3848,3.3902,3.3934,3.3984,3.4049,3.3978,3.398,3.3986,3.4156,3.4154,3.4166,3.406,3.4062,3.4064,3.4148,0,3.3104,3.3249,3.3295,3.3416,3.349,3.352,3.359,3.3658,3.3702,3.3771,3.382,3.3899,3.3895,3.3927,3.3977,3.4031,3.4084,3.4026,3.4121,3.4124,3.4097,3.4182,3.418,3.4256,3.416,3.4162,3.4164,0,3.3221,3.3296,3.3423,3.3511,3.3544,3.3606,3.3691,3.3757,3.3834,3.3863,3.3922,3.395,3.4033,3.4011,3.4126,3.4085,3.4128,3.416,3.4164,3.4173,3.4146,3.4191,3.4282,3.4292,3.4183,3.4181,3.418,0,3.3253,3.3386,3.3479,3.3518,3.3624,3.3666,3.3712,3.3787,3.3837,3.3911,3.3944,3.4027,3.4072,3.4135,3.4184,3.4164,3.4294,3.4277,3.4319,3.4317,3.4344,3.4341,3.444,3.4374,3.4374,3.4374,3.4374,0,3.334,3.3416,3.3494,3.3551,3.3637,3.3689,3.3772,3.3819,3.3885,3.3951,3.3983,3.4044,3.4105,3.4174,3.4213,3.4301,3.4322,3.4346,3.4355,3.4342,3.4339,3.4369,3.4364,3.4377,3.4376,3.4376,3.4375,0,3.3389,3.3445,3.3548,3.3639,3.3664,3.3722,3.38,3.3855,3.3901,3.3983,3.4006,3.4076,3.4159,3.4214,3.432,3.4346,3.444,3.445,3.4414,3.4418,3.4456,3.4451,3.4577,3.4595,3.4519,3.4519,3.452,0,3.344,3.3499,3.3596,3.3642,3.3688,3.3762,3.3813,3.3866,3.3918,3.4008,3.4053,3.4137,3.4207,3.4337,3.4397,3.4478,3.4488,3.4526,3.45,3.4484,3.4485,3.448,3.4485,3.453,3.453,3.4531,3.4531,0,3.3523,3.3547,3.362,3.3702,3.3762,3.3829,3.3896,3.3932,3.3996,3.4053,3.4137,3.4191,3.4298,3.4381,3.4466,3.4513,3.4532,3.4539,3.4553,3.4539,3.4515,3.4526,3.4423,3.4535,3.4535,3.4535,3.4534,3.4534,3.3574,3.3627,3.3702,3.3781,3.3837,3.3899,3.3955,3.4006,3.4078,3.4168,3.4195,3.4282,3.4356,3.4473,3.452,3.4589,3.4585,3.4605,3.461,3.4613,3.4612,3.4505,3.4605,3.4605,3.4605,3.4605,3.4605,0,3.3656,3.3706,3.3778,3.3871,3.3932,3.3946,3.402,3.4071,3.4147,3.4214,3.4282,3.4377,3.4457,3.4523,3.4605,3.4647,3.4657,3.4666,3.4663,3.4673,3.4612,3.4591,3.4656,3.4656,3.4656,3.4656,3.4656,3.4656,3.3706,3.3796,3.3829,3.3945,3.3995,3.408,3.4121,3.4177,3.4231,3.4336,3.4402,3.4445,3.4511,3.4598,3.4671,3.4688,3.4716,3.4722,3.4741,3.4683,3.4677,3.4672,3.4652,3.4729,3.4729,3.4796,3.4797,3.4797]},{"header":{"parameterUnit":"m.s-1","parameterCategory":1,"la1":30.2991,"la2":30.254,"lo1":-89.0895,"lo2":-89.0444,"dy":0.0017,"dx":0.0017,"nx":28,"ny":28,"refTime":"2023-06-21T21:00:00:Z","depth":0,"parameterNumber":3,"parameterNumberName":"V-component_of_WINDS"},"data":[0,0,0,0,0,0,0,0,0,0,0,0,0,0,0,0,0,0,0,0,0,0,0,0,0,0,0,0,0,0,0,0,0,0,0,0,0,0,0,0,0,0,0,0,0,0,0,0,0,0,0,0,0,0,0,0,0,0,0.5687,0.5687,0,0.5767,0.5768,0.5769,0.577,0.5769,0.5768,0.5768,0.5852,0.5856,0.5859,0,0,0,0,0,0,0,0,0,0,0,0,0,0.5536,0.5539,0.5686,0.5687,0.5688,0.5767,0.5768,0.5769,0.5771,0.5769,0.5768,0.5767,0.5851,0.5855,0.5859,0,0,0,0,0,0,0,0,0,0,0,0,0,0.5607,0.554,0.5686,0.5699,0.5701,0.5766,0.5768,0.5769,0.5771,0.5769,0.5768,0.5766,0.585,0.5855,0.586,0.5919,0,0,0.5874,0.5876,0,0,0,0,0,0,0,0,0.5603,0.5613,0.5696,0.5698,0.57,0.5757,0.5746,0.582,0.5771,0.5744,0.5767,0.5766,0.5822,0.5829,0.5848,0.5923,0.5927,0.5875,0.5878,0.588,0.5881,0,0,0,0,0,0,0,0.5598,0.5609,0.5718,0.5697,0.57,0.5701,0.5709,0.576,0.5791,0.5747,0.5747,0.5756,0.5823,0.5843,0.585,0.5928,0.5874,0.5879,0.5882,0.5884,0.6057,0.6058,0,0,0,0,0,0,0.5591,0.5605,0.5716,0.5721,0.5647,0.5705,0.5714,0.574,0.579,0.5796,0.5757,0.5756,0.5835,0.5844,0.5853,0.5926,0.588,0.5884,0.5887,0.6055,0.6057,0.6059,0,0,0,0,0,0,0.5587,0.56,0.5713,0.5663,0.5677,0.5709,0.5738,0.5743,0.5763,0.5798,0.5804,0.5772,0.5835,0.5846,0.5902,0.5929,0.5886,0.5891,0.6053,0.6055,0.6058,0.6073,0,0,0,0,0,0,0.5583,0.5599,0.5622,0.5664,0.568,0.5761,0.574,0.5745,0.5771,0.577,0.5814,0.582,0.5834,0.5895,0.5907,0.5935,0.5894,0.6051,0.6054,0.6057,0.6071,0.6076,0.6081,0,0,0,0,0,0.5578,0.5624,0.5623,0.5637,0.5709,0.5762,0.5772,0.5787,0.5773,0.5796,0.5819,0.5818,0.5924,0.5901,0.5915,0.5944,0.6049,0.6053,0.6057,0.6068,0.6075,0.6081,0,0,0,0,0,0,0.5586,0.563,0.5629,0.569,0.5722,0.5762,0.5793,0.5794,0.5831,0.5829,0.5847,0.5857,0.5913,0.5934,0.5908,0.6004,0.5985,0.5991,0.5989,0.5996,0.6001,0.5995,0.5898,0,0,0,0,0,0.5595,0.5634,0.567,0.572,0.5736,0.5761,0.5785,0.5794,0.5828,0.5842,0.5869,0.5903,0.5944,0.5971,0.601,0.6073,0.6083,0.61,0.6105,0.6109,0.6115,0.615,0.6158,0.6071,0.6071,0.6071,0,0,0.5614,0.5642,0.5666,0.5722,0.5748,0.5789,0.5773,0.5817,0.5847,0.5849,0.5904,0.5925,0.5964,0.6024,0.6052,0.6043,0.6141,0.6114,0.6117,0.6121,0.6155,0.6163,0.617,0.6074,0.6074,0.6073,0,0,0.5669,0.5694,0.5739,0.5765,0.5804,0.582,0.583,0.587,0.5884,0.5939,0.5941,0.5977,0.6047,0.6075,0.6098,0.6162,0.6163,0.6174,0.6202,0.6236,0.6242,0.6249,0.6272,0.628,0.618,0.618,0.618,0,0.5688,0.5749,0.5762,0.5805,0.583,0.5832,0.5878,0.5903,0.5953,0.597,0.5959,0.6046,0.6073,0.6139,0.6155,0.6173,0.6186,0.6171,0.624,0.6247,0.6253,0.6275,0.6284,0.6181,0.6181,0.6181,0.6181,0,0.577,0.5812,0.5844,0.5891,0.5919,0.5963,0.5984,0.6011,0.6016,0.6034,0.609,0.6121,0.6167,0.6183,0.619,0.625,0.6244,0.6236,0.6217,0.6262,0.6283,0.6292,0.6183,0.6183,0.6182,0.6182,0,0,0.5836,0.5888,0.59,0.5921,0.5963,0.5996,0.604,0.6084,0.6107,0.6141,0.6179,0.6237,0.623,0.6256,0.6265,0.6295,0.6344,0.6284,0.6285,0.6295,0.6414,0.642,0.643,0.6344,0.6346,0.6347,0.6411,0,0.5897,0.5975,0.5987,0.6056,0.6095,0.6096,0.6135,0.6165,0.6182,0.6218,0.6237,0.6278,0.6265,0.6281,0.631,0.6332,0.6368,0.6327,0.6381,0.6382,0.6372,0.6441,0.6448,0.6507,0.6419,0.6421,0.6422,0,0.5979,0.6014,0.6086,0.6122,0.6139,0.6173,0.6214,0.6248,0.6282,0.6292,0.6321,0.6326,0.6372,0.635,0.6414,0.6386,0.6408,0.6422,0.6424,0.6431,0.6406,0.6451,0.6526,0.6536,0.6435,0.6434,0.6433,0,0.602,0.6085,0.6137,0.6155,0.6198,0.6222,0.6242,0.6274,0.6299,0.6335,0.6351,0.6392,0.6415,0.6446,0.6463,0.6444,0.6526,0.6504,0.6537,0.6536,0.6555,0.6554,0.6636,0.6567,0.6567,0.6567,0.6567,0,0.6088,0.6132,0.6156,0.6188,0.6238,0.6251,0.63,0.6319,0.6348,0.6384,0.6387,0.6421,0.644,0.6477,0.6489,0.6541,0.6551,0.6561,0.6564,0.6562,0.6561,0.6578,0.6575,0.6569,0.6569,0.6568,0.6568,0,0.6144,0.6161,0.6218,0.6253,0.6263,0.6298,0.6329,0.6361,0.6376,0.6422,0.6433,0.6459,0.6502,0.6521,0.6574,0.6583,0.6642,0.6641,0.663,0.6632,0.6663,0.666,0.6761,0.6775,0.6695,0.6695,0.6696,0,0.6186,0.622,0.6259,0.6283,0.6303,0.6341,0.6366,0.6381,0.6407,0.6448,0.6474,0.6517,0.6552,0.6621,0.6645,0.6686,0.6687,0.6719,0.6693,0.6689,0.6689,0.6687,0.6691,0.6725,0.6725,0.6726,0.6726,0,0.6261,0.6267,0.6303,0.6342,0.6372,0.6404,0.6434,0.6454,0.6473,0.6502,0.6546,0.6573,0.6627,0.6669,0.6711,0.6732,0.6733,0.6734,0.6744,0.6742,0.6735,0.674,0.6645,0.6732,0.6732,0.6731,0.6731,0.6731,0.6312,0.6343,0.6374,0.6414,0.6438,0.6467,0.6498,0.6517,0.6553,0.6598,0.6603,0.665,0.6683,0.6739,0.6761,0.6798,0.679,0.6804,0.6808,0.6811,0.6814,0.6727,0.6805,0.6805,0.6805,0.6805,0.6805,0,0.6388,0.6408,0.6444,0.6486,0.6518,0.6514,0.6548,0.6574,0.6615,0.6645,0.6679,0.6729,0.677,0.6796,0.6838,0.6862,0.6864,0.6873,0.6872,0.6877,0.6818,0.6806,0.6871,0.6871,0.6871,0.6871,0.6871,0.6871,0.6431,0.6482,0.6492,0.6555,0.6575,0.662,0.664,0.6666,0.669,0.6745,0.6779,0.6795,0.6823,0.6867,0.6904,0.6911,0.6927,0.6936,0.6943,0.6888,0.6881,0.6874,0.6863,0.6939,0.6939,0.6999,0.6999,0.7]}]]